This is the latest recevied weather packets stored in our database for station/object KD5BIG-13. If no packets are shown the sender has not sent any weather packets the latest 10 day(s).
| Time | Temp. | Humidity | Pressure | Rain* | Wind** | Luminosity | Snow |
|---|---|---|---|---|---|---|---|
| 1778016592 | 25.56° C | 76% | 1013.9 hPa | 0 mm | - | 202 W/m² | - |
| 1778016289 | 25.56° C | 76% | 1013.8 hPa | 0 mm | - | 164 W/m² | - |
| 1778015986 | 25.56° C | 77% | 1013.6 hPa | 0 mm | - | 167 W/m² | - |
| 1778015683 | 25.56° C | 76% | 1013.9 hPa | 0 mm | - | 167 W/m² | - |
| 1778015379 | 25.56° C | 76% | 1014 hPa | 0 mm | - | 105 W/m² | - |
| 1778015077 | 25.56° C | 77% | 1014.1 hPa | 0 mm | - | 197 W/m² | - |
| 1778014773 | 25° C | 77% | 1014.2 hPa | 0 mm | - | 215 W/m² | - |
| 1778014472 | 25° C | 76% | 1014.2 hPa | 0 mm | - | 95 W/m² | - |
| 1778014168 | 25° C | 76% | 1014.1 hPa | 0 mm | - | 108 W/m² | - |
| 1778013866 | 25.56° C | 76% | 1014.1 hPa | 0 mm | - | 136 W/m² | - |
| 1778013563 | 25.56° C | 76% | 1014.2 hPa | 0 mm | - | 112 W/m² | - |
| 1778013259 | 25.56° C | 75% | 1014.4 hPa | 0 mm | - | 142 W/m² | - |
| 1778012956 | 25.56° C | 76% | 1014.1 hPa | 0 mm | - | 202 W/m² | - |
| 1778012652 | 25.56° C | 75% | 1014.1 hPa | 0 mm | - | 242 W/m² | - |
| 1778012349 | 25.56° C | 76% | 1014.1 hPa | 0 mm | - | 236 W/m² | - |
| 1778012046 | 25.56° C | 75% | 1014.3 hPa | 0 mm | - | 228 W/m² | - |
| 1778011744 | 25.56° C | 75% | 1014.3 hPa | 0 mm | - | 166 W/m² | - |
| 1778011441 | 25° C | 75% | 1014.2 hPa | 0 mm | - | 192 W/m² | - |
| 1778011136 | 25° C | 76% | 1014.4 hPa | 0 mm | - | 169 W/m² | - |
| 1778010834 | 25° C | 76% | 1014.5 hPa | 0 mm | - | 189 W/m² | - |
| 1778010531 | 25° C | 75% | 1014.5 hPa | 0 mm | - | 144 W/m² | - |
| 1778010229 | 25° C | 76% | 1014.6 hPa | 0 mm | - | 196 W/m² | - |
| 1778009929 | 25° C | 76% | 1014.7 hPa | 0 mm | - | 134 W/m² | - |
| 1778009627 | 25° C | 75% | 1014.5 hPa | 0 mm | - | 160 W/m² | - |
| 1778009324 | 25° C | 74% | 1014.6 hPa | 0 mm | - | 152 W/m² | - |
* Rain latest hour (hover to see other rain measurements)
** Current wind speed in m/s (hover to see current wind gust speed)